WELCOME TO TCFT

Voted One Of The Best Flight Schools In The USA

 

 

BECOME AN AIRLINE PILOT

Treasure Coast Flight Training is committed to serving all of your aviation needs as a full service flight academy, aircraft rental facility, and pilot shop

 

 

Questions About Becoming An Airline Pilot?

 

 

What Our Graduates Say

 

 

The training I received with Treasure Coast Flight Training prepared me to become a professional pilot

 

Nathan Meisner

Pilot - Cessna Caravan - USA

Professional yet relaxed environment. Truly an enjoyable experience to fly with TCFT

 

Sophia

Certified Flight Instructor - China

The training I needed to get me to where I am now!

 

Enderson Rafael

Pilot - Go Airlines - Brazil

Thank you TCFT for making me an airline pilot!

 

Kyle Barrett

Pilot - GoJet Airlines - USA

Current Conditions

 

Metar

 

KSUA 132147Z 14006KT 7SM TS VCSH SCT012 SCT020 27/23 A3003

 

TAF

 

TAF KSUA 131740Z 1318/1418 15010KT P6SM VCSH BKN020 BKN040 TEMPO 1318/1320 6SM -RA SCT020 SCT060 BKN200 FM132200 15008KT P6SM VCTS SCT035CB BKN050 FM140200 VRB03KT P6SM SCT050 BKN250 FM141500 15006KT P6SM SCT035 BKN200

 

 

Look No Further. Get Started Today